This is the latest recevied weather packets stored in our database for station/object DO1SC. If no packets are shown the sender has not sent any weather packets the latest 10 day(s).
| Time | Temp. | Humidity | Pressure | Rain* | Wind** | Luminosity | Snow |
|---|---|---|---|---|---|---|---|
| 1776965120 | 13.89° C | 31% | 1022.7 hPa | - | - | 23 W/m² | - |
| 1776964532 | 14.44° C | 30% | 1022.6 hPa | - | - | 27 W/m² | - |
| 1776963927 | 14.44° C | 30% | 1022.6 hPa | - | - | 29 W/m² | - |
| 1776963335 | 15° C | 29% | 1022.7 hPa | - | - | 34 W/m² | - |
| 1776962727 | 15° C | 27% | 1022.9 hPa | - | - | 68 W/m² | - |
| 1776962121 | 15° C | 25% | 1023 hPa | - | - | 73 W/m² | - |
| 1776961530 | 15.56° C | 27% | 1023 hPa | - | - | 80 W/m² | - |
| 1776960924 | 15.56° C | 26% | 1023 hPa | - | - | 85 W/m² | - |
| 1776960333 | 15.56° C | 25% | 1022.9 hPa | - | - | 91 W/m² | - |
| 1776959725 | 15.56° C | 26% | 1023.1 hPa | - | - | 40 W/m² | - |
| 1776959116 | 15.56° C | 26% | 1023 hPa | - | - | 39 W/m² | - |
| 1776958528 | 15.56° C | 24% | 1023.1 hPa | - | - | 39 W/m² | - |
| 1776957920 | 16.11° C | 23% | 1023.1 hPa | - | - | 40 W/m² | - |
| 1776957331 | 16.11° C | 23% | 1023.3 hPa | - | - | 281 W/m² | - |
| 1776956723 | 16.11° C | 24% | 1023.3 hPa | - | - | 328 W/m² | - |
| 1776956137 | 16.11° C | 24% | 1023.5 hPa | - | - | 351 W/m² | - |
| 1776955527 | 16.11° C | 25% | 1023.5 hPa | - | - | 377 W/m² | - |
| 1776954918 | 16.11° C | 26% | 1023.6 hPa | - | - | 402 W/m² | - |
| 1776954330 | 16.11° C | 25% | 1023.7 hPa | - | - | 427 W/m² | - |
| 1776953721 | 16.11° C | 23% | 1023.8 hPa | - | - | 450 W/m² | - |
| 1776953137 | 15.56° C | 24% | 1024.1 hPa | - | - | 467 W/m² | - |
| 1776952525 | 16.11° C | 25% | 1024.1 hPa | - | - | 481 W/m² | - |
| 1776951916 | 15.56° C | 24% | 1024.2 hPa | - | - | 497 W/m² | - |
| 1776951331 | 15.56° C | 24% | 1024.3 hPa | - | - | 517 W/m² | - |
| 1776950720 | 15.56° C | 24% | 1024.5 hPa | - | - | 539 W/m² | - |
* Rain since midnight (hover to see other rain measurements)
** Current wind speed in m/s (hover to see current wind gust speed)